| time (UTC) | temp F | wind direction | speed MPH | gust MPH | rain 1hr in | rain 24hr in | rain mn in | humidity % | barometer mb |
| 20260831203911 | 100 | 270 | 4.0 | 5.0 | 0.00 | 0.00 | 0.00 | 59 | 1021.3 |
| 20260831203340 | 99 | 203 | 4.0 | 4.0 | 0.00 | 0.00 | 0.00 | 59 | 1021.3 |
| 20260831202743 | 99 | 135 | 1.0 | 4.0 | 0.00 | 0.00 | 0.00 | 60 | 1021.3 |
| 20260831202143 | 100 | 180 | 2.0 | 4.0 | 0.00 | 0.00 | 0.00 | 59 | 1021.3 |
| 20260831201516 | 95 | 113 | 2.0 | 3.0 | 0.00 | 0.00 | 0.00 | 65 | 1021.6 |
| 20260831200934 | 95 | 225 | 2.0 | 5.0 | 0.00 | 0.00 | 0.00 | 64 | 1021.6 |
| 20260831200326 | 94 | 135 | 1.0 | 3.0 | 0.00 | 0.00 | 0.00 | 65 | 1021.6 |
| 20260831195737 | 95 | 180 | 3.0 | 3.0 | 0.00 | 0.00 | 0.00 | 65 | 1021.6 |
| 20260831195147 | 96 | 203 | 1.0 | 3.0 | 0.00 | 0.00 | 0.00 | 62 | 1022.0 |
| 20260831194547 | 93 | 203 | 3.0 | 3.0 | 0.00 | 0.00 | 0.00 | 73 | 1022.0 |
| 20260831193915 | 94 | 158 | 0.0 | 3.0 | 0.00 | 0.00 | 0.00 | 71 | 1022.0 |
| 20260831193317 | 91 | 225 | 2.0 | 3.0 | 0.00 | 0.00 | 0.00 | 74 | 1022.0 |
| 20260831192719 | 90 | 338 | 1.0 | 4.0 | 0.00 | 0.00 | 0.00 | 75 | 1022.0 |
| 20260831192132 | 95 | 23 | 2.0 | 3.0 | 0.00 | 0.00 | 0.00 | 67 | 1022.0 |
| 20260831191542 | 94 | 23 | 0.0 | 0.0 | 0.00 | 0.00 | 0.00 | 68 | 1022.0 |
| 20260831190908 | 95 | 203 | 4.0 | 4.0 | 0.00 | 0.00 | 0.00 | 68 | 1022.3 |
| 20260831190327 | 96 | 225 | 2.0 | 4.0 | 0.00 | 0.00 | 0.00 | 67 | 1022.0 |
| 20260831185722 | 94 | 203 | 3.0 | 3.0 | 0.00 | 0.00 | 0.00 | 70 | 1022.3 |
| 20260831185149 | 93 | 203 | 3.0 | 3.0 | 0.00 | 0.00 | 0.00 | 72 | 1022.3 |
| 20260831184509 | 91 | 270 | 3.0 | 4.0 | 0.00 | 0.00 | 0.00 | 74 | 1022.3 |
| 20260831183315 | 90 | 338 | 3.0 | 5.0 | 0.00 | 0.00 | 0.00 | 75 | 1022.6 |
| 20260831182743 | 91 | 113 | 2.0 | 3.0 | 0.00 | 0.00 | 0.00 | 74 | 1022.6 |
| 20260831182120 | 91 | 248 | 2.0 | 3.0 | 0.00 | 0.00 | 0.00 | 74 | 1022.6 |
| 20260831181508 | 91 | 45 | 1.0 | 3.0 | 0.00 | 0.00 | 0.00 | 76 | 1022.6 |
| 20260831180910 | 90 | 270 | 3.0 | 3.0 | 0.00 | 0.00 | 0.00 | 77 | 1022.6 |
| 20260831180345 | 90 | 248 | 3.0 | 3.0 | 0.00 | 0.00 | 0.00 | 76 | 1023.0 |
| 20260831175718 | 90 | 248 | 0.0 | 3.0 | 0.00 | 0.00 | 0.00 | 75 | 1022.6 |
| 20260831175128 | 90 | 180 | 2.0 | 3.0 | 0.00 | 0.00 | 0.00 | 75 | 1023.0 |
| 20260831174542 | 91 | 203 | 1.0 | 2.0 | 0.00 | 0.00 | 0.00 | 74 | 1023.0 |
| 20260831173939 | 90 | 315 | 2.0 | 4.0 | 0.00 | 0.00 | 0.00 | 74 | 1023.0 |
| 20260831173329 | 90 | 180 | 3.0 | 3.0 | 0.00 | 0.00 | 0.00 | 75 | 1023.0 |
| 20260831172706 | 91 | 270 | 2.0 | 2.0 | 0.00 | 0.00 | 0.00 | 75 | 1023.0 |
| 20260831172136 | 90 | 248 | 1.0 | 4.0 | 0.00 | 0.00 | 0.00 | 74 | 1023.0 |
| 20260831171550 | 90 | 225 | 0.0 | 0.0 | 0.00 | 0.00 | 0.00 | 75 | 1023.0 |
| 20260831170347 | 90 | 293 | 0.0 | 3.0 | 0.00 | 0.00 | 0.00 | 75 | 1023.0 |
| 20260831165742 | 88 | 45 | 0.0 | 0.0 | 0.00 | 0.00 | 0.00 | 81 | 1023.0 |
| 20260831165109 | 87 | 203 | 1.0 | 1.0 | 0.00 | 0.00 | 0.00 | 79 | 1023.3 |
| 20260831164546 | 88 | 23 | 0.0 | 3.0 | 0.00 | 0.00 | 0.00 | 79 | 1023.3 |
| 20260831163913 | 87 | 23 | 0.0 | 2.0 | 0.00 | 0.00 | 0.00 | 81 | 1023.3 |
| 20260831162735 | 87 | 90 | 0.0 | 0.0 | 0.00 | 0.00 | 0.00 | 80 | 1023.3 |
| 20260831162144 | 88 | 180 | 0.0 | 1.0 | 0.00 | 0.00 | 0.00 | 78 | 1023.3 |
| 20260831161515 | 88 | 0 | 1.0 | 2.0 | 0.00 | 0.00 | 0.00 | 77 | 1023.3 |
| 20260831160937 | 88 | 203 | 2.0 | 4.0 | 0.00 | 0.00 | 0.00 | 77 | 1023.3 |
| 20260831160347 | 90 | 225 | 1.0 | 3.0 | 0.00 | 0.00 | 0.00 | 75 | 1023.3 |
| 20260831155723 | 92 | 180 | 3.0 | 4.0 | 0.00 | 0.00 | 0.00 | 74 | 1023.3 |
| 20260831155135 | 91 | 158 | 4.0 | 4.0 | 0.00 | 0.00 | 0.00 | 77 | 1023.3 |
| 20260831153308 | 87 | 203 | 2.0 | 3.0 | 0.00 | 0.00 | 0.00 | 82 | 1023.3 |
| 20260831152717 | 87 | 225 | 2.0 | 2.0 | 0.00 | 0.00 | 0.00 | 84 | 1023.3 |
| 20260831152111 | 87 | 225 | 2.0 | 2.0 | 0.00 | 0.00 | 0.00 | 81 | 1023.3 |
| 20260831151532 | 88 | 45 | 2.0 | 2.0 | 0.00 | 0.00 | 0.00 | 80 | 1023.3 |
| 20260831150926 | 86 | 45 | 2.0 | 2.0 | 0.00 | 0.00 | 0.00 | 83 | 1023.3 |
| 20260831150317 | 86 | 45 | 2.0 | 2.0 | 0.00 | 0.00 | 0.00 | 83 | 1023.3 |
| 20260831145150 | 84 | 180 | 0.0 | 0.0 | 0.00 | 0.00 | 0.00 | 87 | 1023.3 |
| 20260831144533 | 83 | 135 | 0.0 | 0.0 | 0.00 | 0.00 | 0.00 | 89 | 1023.3 |
| 20260831143922 | 83 | 203 | 1.0 | 1.0 | 0.00 | 0.00 | 0.00 | 88 | 1023.3 |
| 20260831143331 | 84 | 23 | 0.0 | 2.0 | 0.00 | 0.00 | 0.00 | 87 | 1023.3 |
| 20260831142706 | 82 | 158 | 0.0 | 2.0 | 0.00 | 0.00 | 0.00 | 89 | 1023.3 |
| 20260831142118 | 82 | 180 | 1.0 | 1.0 | 0.00 | 0.00 | 0.00 | 91 | 1023.3 |
| 20260831141536 | 82 | 158 | 0.0 | 0.0 | 0.00 | 0.00 | 0.00 | 89 | 1023.3 |
| 20260831140929 | 81 | 270 | 0.0 | 2.0 | 0.00 | 0.00 | 0.00 | 91 | 1023.3 |
| 20260831140339 | 80 | 315 | 1.0 | 2.0 | 0.00 | 0.00 | 0.00 | 93 | 1023.3 |
| 20260831135715 | 80 | 180 | 2.0 | 3.0 | 0.00 | 0.00 | 0.00 | 92 | 1023.3 |
| 20260831135125 | 80 | 45 | 0.0 | 2.0 | 0.00 | 0.00 | 0.00 | 93 | 1023.3 |
| 20260831134535 | 77 | 270 | 0.0 | 0.0 | 0.00 | 0.00 | 0.00 | 99 | 1023.3 |
| 20260831133340 | 75 | 203 | 1.0 | 2.0 | 0.00 | 0.00 | 0.00 | 99 | 1023.3 |
| 20260831132733 | 74 | 225 | 3.0 | 3.0 | 0.00 | 0.00 | 0.00 | 99 | 1023.3 |
| 20260831132121 | 74 | 180 | 3.0 | 3.0 | 0.00 | 0.00 | 0.00 | 99 | 1023.3 |
| 20260831131513 | 74 | 203 | 0.0 | 0.0 | 0.00 | 0.00 | 0.00 | 99 | 1023.3 |
| 20260831130314 | 74 | 225 | 0.0 | 0.0 | 0.00 | 0.00 | 0.00 | 99 | 1023.3 |
| 20260831125714 | 73 | 203 | 0.0 | 0.0 | 0.00 | 0.00 | 0.00 | 99 | 1023.3 |
| 20260831125135 | 73 | 180 | 0.0 | 0.0 | 0.00 | 0.00 | 0.00 | 99 | 1023.3 |
| 20260831123910 | 72 | 203 | 2.0 | 2.0 | 0.00 | 0.00 | 0.00 | 99 | 1023.0 |
| 20260831123350 | 72 | 180 | 0.0 | 2.0 | 0.00 | 0.00 | 0.00 | 99 | 1023.0 |
| 20260831122713 | 71 | 158 | 1.0 | 3.0 | 0.00 | 0.00 | 0.00 | 99 | 1023.0 |
| 20260831122148 | 71 | 225 | 0.0 | 1.0 | 0.00 | 0.00 | 0.00 | 99 | 1023.0 |
| 20260831121520 | 71 | 180 | 0.0 | 2.0 | 0.00 | 0.00 | 0.00 | 99 | 1023.0 |
| 20260831120318 | 70 | 203 | 0.0 | 0.0 | 0.00 | 0.00 | 0.00 | 99 | 1023.0 |
| 20260831115743 | 70 | 270 | 0.0 | 0.0 | 0.00 | 0.00 | 0.00 | 99 | 1023.0 |
| 20260831114546 | 70 | 180 | 0.0 | 0.0 | 0.00 | 0.00 | 0.00 | 99 | 1023.0 |
| 20260831113932 | 70 | 270 | 0.0 | 2.0 | 0.00 | 0.00 | 0.00 | 99 | 1023.0 |
| 20260831113326 | 70 | 180 | 4.0 | 4.0 | 0.00 | 0.00 | 0.00 | 99 | 1023.0 |
| 20260831112739 | 69 | 203 | 0.0 | 0.0 | 0.00 | 0.00 | 0.00 | 99 | 1023.0 |
| 20260831111510 | 69 | 180 | 0.0 | 0.0 | 0.00 | 0.00 | 0.00 | 99 | 1023.0 |
| 20260831110946 | 69 | 270 | 0.0 | 0.0 | 0.00 | 0.00 | 0.00 | 99 | 1022.6 |
| 20260831105122 | 70 | 203 | 0.0 | 0.0 | 0.00 | 0.00 | 0.00 | 99 | 1022.6 |
| 20260831104545 | 70 | 203 | 0.0 | 0.0 | 0.00 | 0.00 | 0.00 | 99 | 1022.6 |
| 20260831103922 | 70 | 225 | 0.0 | 0.0 | 0.00 | 0.00 | 0.00 | 99 | 1022.6 |
| 20260831102731 | 70 | 203 | 0.0 | 0.0 | 0.00 | 0.00 | 0.00 | 99 | 1022.6 |
| 20260831102144 | 70 | 225 | 2.0 | 2.0 | 0.00 | 0.00 | 0.00 | 99 | 1022.6 |
| 20260831100330 | 70 | 23 | 0.0 | 0.0 | 0.00 | 0.00 | 0.00 | 99 | 1022.3 |
| 20260831095726 | 70 | 180 | 0.0 | 1.0 | 0.00 | 0.00 | 0.00 | 99 | 1022.3 |
| 20260831095136 | 70 | 180 | 2.0 | 2.0 | 0.00 | 0.00 | 0.00 | 99 | 1022.3 |
| 20260831094508 | 70 | 203 | 0.0 | 0.0 | 0.00 | 0.00 | 0.00 | 99 | 1022.3 |
| 20260831093319 | 70 | 203 | 0.0 | 2.0 | 0.00 | 0.00 | 0.00 | 99 | 1022.0 |
| 20260831092744 | 70 | 270 | 0.0 | 1.0 | 0.00 | 0.00 | 0.00 | 99 | 1022.3 |
| 20260831091515 | 70 | 203 | 2.0 | 2.0 | 0.00 | 0.00 | 0.00 | 99 | 1022.3 |
| 20260831090932 | 70 | 203 | 0.0 | 2.0 | 0.00 | 0.00 | 0.00 | 99 | 1022.3 |
| 20260831090349 | 70 | 180 | 0.0 | 1.0 | 0.00 | 0.00 | 0.00 | 99 | 1022.0 |
| 20260831085745 | 70 | 203 | 0.0 | 0.0 | 0.00 | 0.00 | 0.00 | 99 | 1022.0 |
| 20260831085143 | 71 | 248 | 0.0 | 0.0 | 0.00 | 0.00 | 0.00 | 99 | 1022.0 |
| 20260831084541 | 71 | 158 | 0.0 | 0.0 | 0.00 | 0.00 | 0.00 | 99 | 1022.0 |
| 20260831083914 | 71 | 248 | 0.0 | 0.0 | 0.00 | 0.00 | 0.00 | 99 | 1022.0 |
| 20260831083350 | 71 | 180 | 0.0 | 2.0 | 0.00 | 0.00 | 0.00 | 99 | 1022.0 |
| 20260831082735 | 71 | 180 | 0.0 | 0.0 | 0.00 | 0.00 | 0.00 | 99 | 1022.0 |
| 20260831082129 | 71 | 180 | 0.0 | 0.0 | 0.00 | 0.00 | 0.00 | 99 | 1022.0 |
| 20260831081521 | 71 | 203 | 0.0 | 0.0 | 0.00 | 0.00 | 0.00 | 99 | 1022.0 |
| 20260831080934 | 71 | 180 | 0.0 | 0.0 | 0.00 | 0.00 | 0.00 | 99 | 1022.0 |
| 20260831080325 | 71 | 203 | 0.0 | 0.0 | 0.00 | 0.00 | 0.00 | 99 | 1022.0 |
| 20260831075739 | 71 | 203 | 0.0 | 0.0 | 0.00 | 0.00 | 0.00 | 99 | 1022.0 |
| 20260831075148 | 71 | 203 | 0.0 | 0.0 | 0.00 | 0.00 | 0.00 | 99 | 1022.0 |
| 20260831073946 | 71 | 180 | 0.0 | 0.0 | 0.00 | 0.00 | 0.00 | 99 | 1021.6 |
| 20260831073349 | 71 | 203 | 0.0 | 0.0 | 0.00 | 0.00 | 0.00 | 99 | 1021.6 |
| 20260831072742 | 71 | 180 | 0.0 | 0.0 | 0.00 | 0.00 | 0.00 | 99 | 1021.6 |
| 20260831072149 | 71 | 315 | 0.0 | 0.0 | 0.00 | 0.00 | 0.00 | 99 | 1021.6 |
| 20260831071523 | 71 | 203 | 0.0 | 0.0 | 0.00 | 0.00 | 0.00 | 99 | 1022.0 |
| 20260831070928 | 71 | 180 | 0.0 | 0.0 | 0.00 | 0.00 | 0.00 | 99 | 1022.0 |
| 20260831070307 | 71 | 203 | 0.0 | 0.0 | 0.00 | 0.00 | 0.00 | 99 | 1022.0 |
| 20260831065736 | 71 | 180 | 0.0 | 0.0 | 0.00 | 0.00 | 0.00 | 99 | 1022.0 |
| 20260831065141 | 71 | 293 | 0.0 | 0.0 | 0.00 | 0.00 | 0.00 | 99 | 1022.0 |
| 20260831064514 | 71 | 248 | 0.0 | 0.0 | 0.00 | 0.00 | 0.00 | 99 | 1022.0 |
| 20260831063335 | 71 | 203 | 0.0 | 0.0 | 0.00 | 0.00 | 0.00 | 99 | 1022.0 |
| 20260831062738 | 71 | 248 | 0.0 | 0.0 | 0.00 | 0.00 | 0.00 | 99 | 1022.0 |
| 20260831061510 | 71 | 203 | 0.0 | 0.0 | 0.00 | 0.00 | 0.00 | 99 | 1022.0 |
| 20260831060929 | 71 | 203 | 0.0 | 0.0 | 0.00 | 0.00 | 0.00 | 99 | 1022.0 |
| 20260831060306 | 71 | 203 | 0.0 | 0.0 | 0.00 | 0.00 | 0.00 | 99 | 1022.3 |
| 20260831055726 | 71 | 203 | 0.0 | 0.0 | 0.00 | 0.00 | 0.00 | 99 | 1022.0 |
| 20260831055110 | 71 | 203 | 0.0 | 0.0 | 0.00 | 0.00 | 0.00 | 99 | 1022.0 |
| 20260831054545 | 72 | 203 | 0.0 | 0.0 | 0.00 | 0.00 | 0.00 | 99 | 1022.0 |
| 20260831053931 | 71 | 203 | 0.0 | 0.0 | 0.00 | 0.00 | 0.00 | 99 | 1022.0 |
| 20260831053334 | 71 | 225 | 0.0 | 0.0 | 0.00 | 0.00 | 0.00 | 99 | 1022.0 |
| 20260831052718 | 71 | 203 | 0.0 | 0.0 | 0.00 | 0.00 | 0.00 | 99 | 1022.3 |
| 20260831052122 | 71 | 225 | 0.0 | 0.0 | 0.00 | 0.00 | 0.00 | 99 | 1022.3 |
| 20260831051546 | 71 | 203 | 0.0 | 0.0 | 0.00 | 0.00 | 0.00 | 99 | 1022.3 |
| 20260831050938 | 71 | 180 | 0.0 | 0.0 | 0.00 | 0.00 | 0.00 | 99 | 1022.3 |
| 20260831050333 | 71 | 180 | 0.0 | 0.0 | 0.00 | 0.00 | 0.00 | 99 | 1022.3 |
| 20260831045726 | 72 | 158 | 0.0 | 0.0 | 0.00 | 0.00 | 0.00 | 99 | 1022.3 |
| 20260831045111 | 72 | 203 | 0.0 | 0.0 | 0.00 | 0.00 | 0.00 | 99 | 1022.3 |
| 20260831044519 | 72 | 203 | 0.0 | 0.0 | 0.00 | 0.00 | 0.00 | 99 | 1022.3 |
| 20260831042732 | 72 | 203 | 0.0 | 0.0 | 0.00 | 0.00 | 0.00 | 99 | 1022.3 |
| 20260831042110 | 72 | 203 | 0.0 | 0.0 | 0.00 | 0.00 | 0.00 | 99 | 1022.3 |
| 20260831041516 | 72 | 203 | 0.0 | 0.0 | 0.00 | 0.00 | 0.00 | 99 | 1022.3 |
| 20260831040912 | 72 | 180 | 0.0 | 0.0 | 0.00 | 0.00 | 0.00 | 99 | 1022.3 |
| 20260831035738 | 72 | 203 | 0.0 | 0.0 | 0.00 | 0.00 | 0.01 | 99 | 1022.3 |
| 20260831035107 | 72 | 180 | 0.0 | 0.0 | 0.00 | 0.00 | 0.01 | 99 | 1022.3 |
| 20260831034519 | 72 | 203 | 0.0 | 0.0 | 0.00 | 0.00 | 0.01 | 99 | 1022.3 |
| 20260831033929 | 72 | 203 | 0.0 | 0.0 | 0.00 | 0.00 | 0.01 | 99 | 1022.3 |
| 20260831033344 | 72 | 203 | 0.0 | 0.0 | 0.00 | 0.00 | 0.01 | 99 | 1022.3 |
| 20260831032730 | 72 | 203 | 0.0 | 0.0 | 0.00 | 0.00 | 0.01 | 99 | 1022.6 |
| 20260831032131 | 72 | 203 | 0.0 | 0.0 | 0.00 | 0.00 | 0.01 | 99 | 1022.3 |
| 20260831031519 | 72 | 225 | 0.0 | 0.0 | 0.00 | 0.00 | 0.01 | 99 | 1022.3 |
| 20260831030941 | 72 | 225 | 0.0 | 1.0 | 0.00 | 0.00 | 0.01 | 99 | 1022.3 |
| 20260831030318 | 72 | 225 | 0.0 | 0.0 | 0.00 | 0.00 | 0.01 | 99 | 1022.3 |
| 20260831025140 | 73 | 203 | 0.0 | 0.0 | 0.00 | 0.00 | 0.01 | 99 | 1022.6 |
| 20260831024541 | 73 | 225 | 0.0 | 0.0 | 0.00 | 0.00 | 0.01 | 99 | 1022.3 |
| 20260831023934 | 73 | 203 | 0.0 | 2.0 | 0.00 | 0.00 | 0.01 | 99 | 1022.3 |
| 20260831023310 | 73 | 203 | 0.0 | 0.0 | 0.00 | 0.00 | 0.01 | 99 | 1022.3 |
| 20260831022713 | 73 | 203 | 2.0 | 2.0 | 0.00 | 0.00 | 0.01 | 99 | 1022.3 |
| 20260831021538 | 73 | 225 | 0.0 | 0.0 | 0.00 | 0.00 | 0.01 | 99 | 1022.3 |
| 20260831020925 | 73 | 203 | 0.0 | 2.0 | 0.00 | 0.00 | 0.01 | 99 | 1022.3 |
| 20260831020343 | 73 | 203 | 0.0 | 2.0 | 0.00 | 0.00 | 0.01 | 99 | 1022.3 |
| 20260831015731 | 73 | 203 | 1.0 | 2.0 | 0.00 | 0.00 | 0.01 | 99 | 1022.3 |
| 20260831015108 | 74 | 180 | 0.0 | 0.0 | 0.00 | 0.00 | 0.01 | 99 | 1022.3 |
| 20260831014532 | 74 | 203 | 0.0 | 0.0 | 0.00 | 0.00 | 0.01 | 99 | 1022.3 |
| 20260831013317 | 74 | 180 | 0.0 | 0.0 | 0.00 | 0.00 | 0.01 | 99 | 1022.3 |
| 20260831012712 | 74 | 180 | 0.0 | 0.0 | 0.00 | 0.00 | 0.01 | 99 | 1022.0 |
| 20260831012134 | 74 | 225 | 2.0 | 2.0 | 0.00 | 0.00 | 0.01 | 99 | 1022.0 |
| 20260831011513 | 74 | 180 | 2.0 | 2.0 | 0.00 | 0.00 | 0.01 | 99 | 1022.0 |
| 20260831010947 | 75 | 203 | 0.0 | 2.0 | 0.00 | 0.00 | 0.01 | 99 | 1022.0 |
| 20260831005714 | 75 | 203 | 1.0 | 4.0 | 0.00 | 0.00 | 0.01 | 99 | 1021.6 |
| 20260831005124 | 75 | 158 | 2.0 | 2.0 | 0.00 | 0.00 | 0.01 | 99 | 1022.0 |
| 20260831004536 | 75 | 180 | 2.0 | 2.0 | 0.00 | 0.00 | 0.01 | 99 | 1021.6 |
| 20260831003948 | 76 | 203 | 1.0 | 3.0 | 0.00 | 0.00 | 0.01 | 99 | 1021.6 |
| 20260831003307 | 76 | 180 | 2.0 | 3.0 | 0.00 | 0.00 | 0.01 | 99 | 1021.6 |
| 20260831002133 | 77 | 225 | 1.0 | 2.0 | 0.00 | 0.00 | 0.01 | 99 | 1021.3 |
| 20260831001541 | 77 | 180 | 1.0 | 1.0 | 0.00 | 0.00 | 0.01 | 99 | 1021.3 |
| 20260831000949 | 78 | 203 | 0.0 | 2.0 | 0.00 | 0.00 | 0.01 | 99 | 1021.3 |
| 20260831000313 | 78 | 180 | 1.0 | 2.0 | 0.00 | 0.00 | 0.01 | 99 | 1020.9 |
| 20260830235711 | 78 | 158 | 2.0 | 2.0 | 0.00 | 0.00 | 0.01 | 99 | 1020.9 |
| 20260830235118 | 79 | 203 | 1.0 | 2.0 | 0.00 | 0.00 | 0.01 | 99 | 1020.9 |
| 20260830234533 | 79 | 203 | 1.0 | 1.0 | 0.00 | 0.00 | 0.01 | 99 | 1020.9 |
| 20260830233948 | 79 | 203 | 2.0 | 2.0 | 0.00 | 0.00 | 0.01 | 99 | 1020.9 |
| 20260830233325 | 79 | 203 | 3.0 | 3.0 | 0.00 | 0.00 | 0.01 | 99 | 1020.9 |
| 20260830232720 | 80 | 203 | 2.0 | 2.0 | 0.00 | 0.00 | 0.01 | 98 | 1020.9 |
| 20260830232140 | 80 | 203 | 3.0 | 3.0 | 0.00 | 0.00 | 0.01 | 97 | 1020.9 |
| 20260830230919 | 81 | 180 | 1.0 | 2.0 | 0.00 | 0.00 | 0.01 | 96 | 1020.9 |
| 20260830225747 | 81 | 135 | 2.0 | 4.0 | 0.00 | 0.00 | 0.01 | 97 | 1020.9 |
| 20260830225112 | 81 | 203 | 2.0 | 3.0 | 0.00 | 0.00 | 0.01 | 98 | 1020.9 |
| 20260830224549 | 82 | 180 | 2.0 | 3.0 | 0.00 | 0.00 | 0.01 | 96 | 1020.9 |
| 20260830223926 | 83 | 203 | 2.0 | 3.0 | 0.00 | 0.00 | 0.01 | 94 | 1020.9 |
| 20260830223313 | 83 | 180 | 2.0 | 4.0 | 0.00 | 0.00 | 0.01 | 93 | 1020.9 |
| 20260830222734 | 84 | 203 | 2.0 | 3.0 | 0.00 | 0.00 | 0.01 | 91 | 1020.9 |
| 20260830222139 | 85 | 158 | 3.0 | 3.0 | 0.00 | 0.00 | 0.01 | 89 | 1020.9 |
| 20260830221521 | 86 | 203 | 3.0 | 3.0 | 0.00 | 0.00 | 0.01 | 88 | 1020.9 |
| 20260830220940 | 86 | 203 | 4.0 | 4.0 | 0.00 | 0.00 | 0.01 | 86 | 1020.9 |
| 20260830220335 | 86 | 180 | 2.0 | 4.0 | 0.00 | 0.00 | 0.01 | 86 | 1020.9 |
| 20260830215123 | 87 | 180 | 3.0 | 4.0 | 0.00 | 0.00 | 0.01 | 84 | 1020.9 |
| 20260830214549 | 87 | 180 | 4.0 | 4.0 | 0.00 | 0.00 | 0.01 | 86 | 1021.3 |
| 20260830213940 | 87 | 203 | 2.0 | 4.0 | 0.00 | 0.00 | 0.01 | 84 | 1021.3 |
| 20260830213322 | 86 | 203 | 2.0 | 4.0 | 0.00 | 0.00 | 0.01 | 85 | 1020.9 |
| 20260830212747 | 86 | 203 | 3.0 | 4.0 | 0.00 | 0.00 | 0.01 | 85 | 1021.3 |
| 20260830211511 | 85 | 203 | 4.0 | 4.0 | 0.00 | 0.00 | 0.01 | 87 | 1021.3 |
| 20260830210931 | 85 | 203 | 3.0 | 4.0 | 0.00 | 0.00 | 0.01 | 85 | 1020.9 |
| 20260830210342 | 85 | 225 | 4.0 | 5.0 | 0.00 | 0.00 | 0.01 | 85 | 1020.9 |
| 20260830205743 | 85 | 158 | 3.0 | 4.0 | 0.00 | 0.00 | 0.01 | 85 | 1020.9 |
| 20260830205138 | 85 | 203 | 4.0 | 4.0 | 0.00 | 0.00 | 0.01 | 86 | 1020.9 |
| 20260830204535 | 84 | 180 | 3.0 | 3.0 | 0.00 | 0.00 | 0.01 | 91 | 1021.3 |